BOLSONA NZAA-NZQN

Flight info

Callsign BOLSONA
Flight time N/A
Altitude 40000
Route KAPAI Y320 DOVOT
Aircraft F18/M-SDGHITUY/LB1

Departure

Time 2026-04-30 22:28
Airport Auckland International Airport (NZAA)

Arrival

Time N/A
Airport Queenstown Airport (NZQN)
Time Latitude Longitude Altitude Speed Heading
2026-04-30 22:23 -37.00509 174.79416 29 ft 0 kts 60°
2026-04-30 22:25 -37.00509 174.79399 29 ft 7 kts 219°
2026-04-30 22:25 -37.00535 174.79393 28 ft 0 kts 175°
2026-04-30 22:26 -37.00626 174.79425 24 ft 30 kts 149°
2026-04-30 22:26 -37.00712 174.79338 27 ft 19 kts 245°
2026-04-30 22:26 -37.00769 174.79178 31 ft 12 kts 245°
2026-04-30 22:27 -37.00879 174.79051 27 ft 38 kts 244°
2026-04-30 22:27 -37.01015 174.78656 19 ft 55 kts 230°
2026-04-30 22:27 -37.01459 174.77507 91 ft 200 kts 275°
2026-04-30 22:28 -37.01422 174.72771 1528 ft 301 kts 264°
2026-04-30 22:28 -37.02575 174.71947 1603 ft 191 kts 100°
2026-04-30 22:29 -37.02087 174.74953 261 ft 215 kts 84°
2026-04-30 22:29 -37.01720 174.76782 55 ft 212 kts 71°
2026-04-30 22:30 -37.01012 174.79411 26 ft 0 kts 86°
2026-04-30 22:31 -37.01011 174.79416 26 ft 0 kts 86°
2026-04-30 22:33 -37.01011 174.79417 26 ft 0 kts 85°
2026-04-30 22:34 -37.01011 174.79419 27 ft 3 kts 85°
2026-04-30 22:35 -37.01004 174.79480 27 ft 0 kts 76°
2026-04-30 22:36 -37.00784 174.78597 23 ft 0 kts 161°
2026-04-30 22:39 -37.00894 174.78465 13 ft 62 kts 236°
2026-04-30 22:40 -37.01262 174.77699 23 ft 27 kts 243°
2026-04-30 22:41 -37.01357 174.77434 25 ft 0 kts 251°
2026-04-30 22:43 -37.01358 174.77432 25 ft 5 kts 251°
2026-04-30 22:43 -37.01362 174.77417 25 ft 0 kts 251°
2026-04-30 22:45 -37.01432 174.77158 23 ft 0 kts 251°
2026-04-30 22:45 -37.01464 174.77115 23 ft 0 kts 192°
2026-04-30 22:46 -37.01481 174.77110 23 ft 0 kts 192°
2026-04-30 22:48 -37.01483 174.77110 23 ft 4 kts 192°
2026-04-30 22:49 -37.01607 174.77260 22 ft 0 kts 81°
2026-04-30 22:51 -37.00883 174.79930 360 ft 242 kts 71°
2026-04-30 22:51 -36.99722 174.83841 3355 ft 192 kts 292°
2026-04-30 22:52 -36.99840 174.83363 2228 ft 265 kts 86°
2026-04-30 22:52 -36.98424 174.88736 3103 ft 350 kts 71°
2026-04-30 22:53 -36.96994 174.93457 4444 ft 259 kts 71°